Zurück zum Katalog

SL-12 DEB

LostUNKNOWN
NORAD 34183·DEBRIS·🇷🇺 Russia

Gestartet Jul 30, 1992 von Baikonur Cosmodrome

Loading…

Nächste Überflüge (nächste 24 Stunden)

TLE

VeraltetSource: Space-Track

Epoche: Sep 3, 2024, 00:42 UTC

1 34183U 92047AT  24247.02984675  .81030526  00000-0  90821+1 0  9996
2 34183  65.8610  94.7941 2146939 143.3410  11.6703 10.88207265646598

Verfolge SL-12 DEB in Echtzeit mit AllMySat

Download on the App Store